Location: Casteau
(50.5142°N, 4.0161°E)
Time: 21:02:03
(UTC+00:00)

Tiros 1 - Pass Details

Date: 03 August 2021
Orbit: 630 x 663 km, 48.4° (Epoch: 28 September)

Event Time Altitude Azimuth Distance (km) Brightness Sun altitude
Rises 15:32:54 0° 183° (S) 2,980 10.8 34.9°
Maximum altitude 15:38:12 10° 134° (SE) 2,071 9.6 34.1°
Drops below altitude 10° 15:38:27 10° 131° (SE) 2,073 9.6 34.0°
Sets 15:43:29 0° 86° (E) 2,978 10.0 33.3°
